Vorticity
6 6 6 7 5 5 5 4 3 3 2 2 5 4 3 2 15 22 9 16 11 -2 7 15 17 12 14 9 7 10 8 10 8 8 8 6 6 7 7 6 7 10 11
5 4 6 6 7 6 4 4 6 4 4 6 6 4 13 13 7 2 19 9 25 7 18 30 20 10 5 7 7 10 7 7 7 7 5 5 6 6 6 10 12 10 9
5 5 5 3 6 6 7 5 6 8 8 6 3 1 8 6 23 14 15 10 1 35 20 10 9 9 7 9 9 8 6 7 6 5 5 6 7 6 12 12 7 6 6
3 1 11 8 9 10 9 8 7 8 11 12 14 9 2 20 14 24 18 19 19 7 10 9 6 8 6 9 7 6 7 6 5 6 7 7 7 11 9 7 6 5 7
8 7 5 4 -0 7 5 5 5 10 11 11 10 8 21 7 6 6 5 8 13 8 7 9 6 10 9 6 6 6 6 7 7 7 8 6 10 9 8 4 6 7 6
8 5 4 5 9 9 4 11 17 18 9 11 11 17 13 4 10 15 13 8 9 7 8 8 8 7 5 5 6 7 8 7 7 6 6 10 9 8 5 5 5 6 6
9 7 9 9 5 9 14 9 3 7 8 15 6 9 12 11 12 9 9 7 10 5 6 7 7 5 6 6 8 8 7 6 4 7 7 11 9 8 5 4 5 7 8
7 8 9 7 13 5 10 15 15 17 9 10 10 6 6 12 10 7 8 8 6 7 8 8 5 5 6 8 8 6 6 2 4 7 6 10 10 7 5 4 7 6 7
8 8 10 12 5 15 8 1 2 1 3 11 6 10 11 7 6 7 8 7 8 9 8 5 5 6 7 8 7 5 6 1 4 7 5 12 9 7 5 7 7 7 10
15 9 9 9 7 6 4 6 9 11 12 13 9 11 8 6 6 7 11 7 9 9 6 5 5 7 7 7 6 6 6 4 5 5 7 11 9 5 5 8 8 9 15
10 8 6 7 8 5 7 6 8 15 12 9 8 8 6 7 7 9 8 8 9 8 5 5 6 7 7 6 7 7 7 5 3 4 9 11 7 4 8 8 9 13 14
6 5 6 6 5 6 6 8 12 11 8 6 7 7 6 5 6 11 8 9 9 5 4 5 5 5 5 6 5 6 9 6 4 4 12 9 6 6 8 10 10 14 15
6 7 7 7 8 7 7 13 10 7 7 6 6 5 6 6 9 9 8 9 9 5 4 3 4 4 5 5 5 6 9 7 4 4 14 8 5 8 11 10 13 13 13
7 9 9 8 8 8 8 10 7 6 6 7 5 6 6 5 11 8 9 9 6 5 4 3 3 4 5 5 6 7 9 7 7 6 12 6 7 10 9 11 12 13 13
9 8 8 8 8 8 10 8 7 6 7 7 7 8 6 8 10 7 9 9 6 5 4 2 2 4 5 5 7 7 8 6 10 11 10 7 8 10 8 11 12 14 11
9 9 9 7 8 9 10 8 7 7 8 8 9 8 10 8 8 7 10 9 6 4 4 4 2 4 5 5 8 7 8 4 7 14 7 7 9 8 8 12 13 14 11
9 8 7 7 7 8 9 9 8 7 8 9 10 13 9 8 8 6 9 8 7 4 4 4 4 4 4 7 8 8 7 3 8 13 7 7 10 7 9 13 13 13 11
8 7 7 7 6 7 9 8 8 10 10 12 13 9 7 8 6 6 10 8 8 6 4 4 3 5 5 8 8 9 7 4 10 13 7 7 10 7 9 12 13 13 11
7 6 7 7 6 6 7 9 11 12 13 11 8 6 6 9 5 6 9 8 8 7 6 5 5 5 6 9 8 10 6 4 9 12 8 7 10 6 9 12 14 13 11
7 6 6 8 6 6 8 11 13 13 11 7 7 5 9 6 6 7 8 7 7 7 6 6 6 5 6 8 8 10 7 5 9 11 7 6 10 6 11 12 11 15 9
6 7 5 7 7 6 10 14 11 14 7 13 20 18 8 5 7 7 7 7 7 7 6 6 5 5 7 8 8 9 10 4 10 12 5 3 3 6 8 12 11 16 9
7 7 6 8 7 7 12 13 12 12 7 8 9 7 6 8 7 7 7 8 8 7 6 6 6 6 8 8 8 7 9 5 8 13 5 7 4 10 9 13 10 15 11
7 7 8 8 7 9 14 12 11 10 7 8 6 6 6 7 7 7 7 7 8 7 7 7 7 6 8 8 7 7 9 7 9 13 6 10 6 6 7 13 9 13 12
9 8 9 8 9 9 13 9 6 5 4 5 9 10 7 6 8 7 8 7 7 8 8 7 6 8 8 8 7 5 10 6 8 12 5 9 7 5 6 9 11 11 13
7 8 8 11 10 9 13 5 8 9 8 8 6 8 9 7 8 9 8 8 8 7 7 7 7 8 8 8 7 5 10 6 8 11 4 6 8 4 5 8 10 11 12
8 11 11 8 8 9 15 9 5 5 4 6 10 7 5 7 6 8 9 8 8 7 8 8 7 7 7 7 7 5 10 6 9 12 4 7 7 8 3 7 8 9 11
Height
5847 5846 5846 5847 5846 5845 5846 5845 5843 5842 5841 5839 5838 5835 5832 5831 5827 5824 5822 5819 5815 5812 5809 5804 5801 5799 5796 5793 5791 5787 5783 5779 5776 5772 5767 5763 5759 5754 5749 5744 5739 5733 5728
5844 5844 5844 5844 5844 5844 5843 5841 5840 5839 5838 5836 5834 5832 5828 5825 5822 5820 5816 5813 5809 5806 5803 5800 5798 5796 5794 5791 5788 5783 5779 5776 5772 5768 5764 5759 5754 5749 5744 5738 5732 5727 5721
5842 5842 5842 5842 5842 5842 5841 5839 5837 5836 5833 5831 5829 5827 5824 5821 5817 5814 5809 5806 5804 5802 5799 5797 5795 5794 5791 5788 5784 5781 5777 5773 5768 5764 5759 5754 5749 5743 5737 5731 5726 5720 5714
5839 5839 5839 5840 5838 5838 5836 5835 5833 5831 5829 5827 5824 5822 5819 5815 5812 5808 5804 5802 5801 5799 5796 5795 5793 5791 5788 5784 5781 5778 5773 5769 5765 5760 5755 5749 5743 5737 5731 5725 5719 5712 5706
5835 5835 5835 5835 5835 5834 5832 5831 5829 5827 5825 5822 5820 5817 5814 5812 5809 5806 5803 5801 5799 5796 5794 5793 5791 5788 5785 5781 5777 5773 5770 5766 5762 5756 5750 5744 5737 5731 5725 5719 5712 5704 5696
5831 5831 5831 5831 5831 5829 5829 5827 5825 5823 5821 5818 5816 5813 5812 5810 5806 5805 5801 5799 5797 5795 5793 5791 5788 5784 5781 5778 5774 5771 5767 5762 5757 5751 5745 5738 5732 5726 5719 5712 5704 5696 5687
5827 5827 5827 5826 5826 5826 5824 5823 5822 5820 5818 5816 5814 5811 5810 5808 5805 5803 5800 5797 5795 5793 5790 5787 5784 5782 5780 5776 5772 5768 5764 5759 5754 5747 5740 5734 5727 5720 5713 5705 5697 5688 5678
5823 5823 5822 5823 5823 5823 5821 5819 5818 5816 5815 5814 5811 5809 5807 5806 5804 5801 5799 5796 5794 5791 5788 5785 5782 5780 5776 5774 5769 5765 5761 5756 5750 5743 5736 5729 5721 5714 5706 5698 5688 5677 5667
5820 5819 5819 5819 5820 5820 5817 5816 5816 5814 5812 5811 5809 5807 5805 5804 5802 5799 5797 5795 5792 5789 5786 5784 5781 5778 5775 5771 5768 5763 5758 5752 5745 5739 5731 5723 5715 5707 5699 5689 5679 5668 5657
5816 5816 5817 5817 5818 5817 5815 5813 5812 5810 5809 5808 5807 5805 5804 5803 5800 5798 5795 5793 5790 5788 5785 5783 5780 5777 5773 5770 5765 5760 5754 5748 5742 5734 5726 5718 5710 5702 5692 5682 5671 5660 5648
5812 5814 5813 5814 5815 5814 5811 5809 5809 5807 5806 5806 5804 5803 5802 5800 5798 5796 5793 5791 5788 5786 5784 5782 5779 5776 5771 5766 5762 5757 5751 5744 5737 5729 5721 5713 5704 5695 5685 5675 5664 5652 5640
5810 5811 5811 5812 5811 5810 5809 5807 5805 5804 5803 5803 5802 5800 5799 5798 5796 5794 5791 5788 5787 5785 5783 5780 5777 5774 5769 5765 5759 5753 5747 5740 5733 5725 5716 5708 5699 5689 5679 5669 5657 5644 5633
5807 5808 5809 5808 5807 5806 5806 5804 5803 5803 5801 5800 5799 5797 5796 5795 5794 5792 5789 5787 5785 5783 5781 5778 5775 5771 5767 5762 5756 5750 5743 5736 5729 5720 5712 5703 5694 5684 5674 5662 5650 5638 5627
5804 5805 5806 5805 5804 5803 5802 5802 5800 5800 5799 5798 5796 5795 5792 5792 5792 5790 5788 5785 5783 5781 5779 5776 5772 5769 5764 5758 5753 5747 5741 5733 5724 5716 5708 5699 5690 5679 5669 5657 5645 5633 5623
5801 5802 5802 5802 5801 5800 5799 5798 5798 5797 5795 5794 5793 5792 5790 5789 5789 5787 5785 5782 5780 5779 5777 5773 5770 5765 5761 5755 5750 5743 5735 5729 5721 5712 5704 5695 5686 5676 5665 5653 5641 5630 5619
5798 5799 5799 5798 5797 5796 5796 5795 5794 5793 5792 5790 5790 5789 5788 5787 5786 5785 5782 5780 5777 5775 5773 5770 5766 5763 5758 5752 5746 5740 5733 5725 5717 5709 5700 5691 5682 5672 5661 5649 5637 5626 5616
5794 5794 5794 5794 5793 5792 5792 5791 5790 5789 5788 5787 5787 5786 5785 5783 5782 5781 5780 5777 5775 5772 5770 5767 5763 5759 5754 5749 5743 5737 5731 5724 5714 5705 5697 5688 5678 5668 5658 5646 5634 5623 5613
5790 5790 5790 5790 5789 5788 5788 5787 5786 5785 5784 5783 5783 5783 5782 5780 5778 5778 5776 5774 5771 5769 5766 5763 5760 5756 5751 5745 5739 5733 5726 5718 5710 5702 5694 5685 5675 5665 5655 5642 5631 5621 5611
5786 5786 5786 5786 5785 5785 5784 5783 5782 5780 5780 5779 5780 5779 5778 5777 5775 5774 5772 5770 5768 5765 5762 5759 5756 5751 5747 5741 5736 5729 5722 5715 5707 5698 5690 5682 5673 5663 5652 5640 5630 5619 5609
5782 5782 5782 5781 5781 5781 5780 5779 5777 5777 5776 5776 5776 5775 5775 5774 5771 5769 5768 5766 5764 5761 5758 5755 5751 5747 5743 5737 5731 5725 5719 5711 5703 5695 5688 5679 5670 5660 5650 5638 5628 5618 5607
5777 5777 5777 5776 5776 5776 5775 5775 5773 5773 5772 5772 5771 5771 5770 5770 5768 5765 5763 5762 5759 5757 5754 5751 5747 5743 5738 5733 5727 5721 5714 5707 5699 5692 5686 5679 5670 5660 5650 5638 5627 5616 5606
5771 5771 5771 5771 5771 5771 5771 5770 5770 5769 5769 5768 5768 5767 5767 5765 5764 5761 5759 5757 5755 5752 5750 5747 5743 5738 5734 5728 5723 5717 5710 5703 5696 5690 5682 5675 5666 5657 5647 5636 5625 5615 5605
5765 5765 5765 5766 5766 5765 5765 5765 5766 5766 5765 5764 5764 5763 5762 5761 5759 5757 5755 5753 5751 5748 5745 5742 5738 5734 5729 5724 5719 5713 5707 5700 5693 5687 5680 5672 5664 5655 5645 5635 5625 5615 5605
5758 5759 5760 5760 5760 5760 5761 5761 5762 5762 5761 5760 5759 5758 5757 5756 5754 5752 5751 5748 5746 5743 5740 5737 5734 5729 5725 5720 5715 5709 5703 5697 5690 5684 5677 5670 5662 5654 5645 5635 5626 5616 5606
5752 5753 5754 5754 5754 5754 5755 5756 5756 5756 5756 5755 5754 5753 5752 5751 5750 5748 5746 5744 5741 5738 5735 5732 5729 5725 5720 5716 5711 5706 5700 5694 5687 5681 5675 5668 5660 5653 5645 5635 5625 5616 5607
5746 5747 5747 5747 5748 5749 5750 5750 5751 5751 5751 5749 5749 5748 5747 5746 5744 5742 5740 5738 5736 5733 5730 5727 5724 5720 5716 5712 5707 5701 5696 5690 5684 5678 5672 5666 5659 5652 5643 5635 5626 5617 5608